Skip Page Navigation
NASA JPL Caltech
NASA Logo - Jet Propulsion Laboratory + View the NASA Portal
+ Center for Near-Earth Object Studies
JPL Home Earth Solar System Stars & Galaxies Technology
JPL Solar System Dynamics
BODIES ORBITS EPHEMERIDES TOOLS PHYSICAL DATA DISCOVERY FAQ SITE MAP
JPL Small-Body Database Browser
Search: [ help ]  
300436 (2007 TF34)
Classification: Main-belt Asteroid          SPK-ID: 2300436
Ephemeris | Orbit Diagram | Orbital Elements | Mission Design | Physical Parameters | Discovery Circumstances ]

[ show orbit diagram ]
Orbital Elements at Epoch 2459000.5 (2020-May-31.0) TDB
Reference: JPL 10 (heliocentric ecliptic J2000)
 Element Value Uncertainty (1-sigma)   Units 
e .1943860664339139 5.8771e-07  
a 2.535486376962771 3.9811e-08 au
q 2.042623153648202 1.5202e-06 au
i .8077223584845593 1.6308e-05 deg
node 175.4826844551899 0.00088422 deg
peri 191.9343344978205 0.00089251 deg
M 63.4081235592463 0.00010091 deg
tp 2458740.763640238011
(2019-Sep-14.26364024)
0.000419 TDB
period 1474.654732953079
4.04
3.4732e-05
9.509e-08
d
yr
n .2441249412186674 5.7498e-09 deg/d
Q 3.02834960027734 4.755e-08 au
  Orbit Determination Parameters
   # obs. used (total)      126  
   data-arc span      8734 days (23.91 yr)  
   first obs. used      1995-11-27  
   last obs. used      2019-10-26  
   planetary ephem.      DE431  
   SB-pert. ephem.      SB431-N16  
   condition code      0  
   norm. resid. RMS      .52355  
   source      ORB  
   producer      Otto Matic  
   solution date      2019-Nov-08 07:20:17  

Additional Information
 Earth MOID = 1.04145 au 
 Jupiter MOID = 2.43398 au 
 T_jup = 3.422 
[ show covariance matrix ]

Ephemeris | Orbit Diagram | Orbital Elements | Mission Design | Physical Parameters | Discovery Circumstances ]

Physical Parameter Table
Parameter Symbol Value Units Sigma Reference Notes
absolute magnitude H 17.9   n/a MPO494600  

300436 (2007 TF34)          Discovered 2007-Oct-06 by Spacewatch at Kitt Peak
Reference: 20111012/Numbers.arcLast Updated: 2011-10-13

Alternate Designations
 2007 TF34 = 2007 TM417 
Ephemeris | Orbit Diagram | Orbital Elements | Mission Design | Physical Parameters | Discovery Circumstances ]
ABOUT SSD CREDITS/AWARDS PRIVACY/COPYRIGHT GLOSSARY LINKS
FirstGov 2020-Jul-05 14:58 UT
(server date/time)  
NASA Home Page
Site Manager:   Ryan S. Park
Webmaster  Alan B. Chamberlin